[[{"header":{"parameterUnit":"m.s-1","parameterCategory":2,"la1":30.2991,"la2":30.254,"lo1":-89.0895,"lo2":-89.0444,"dy":0.0017,"dx":0.0017,"nx":28,"ny":28,"refTime":"2024-12-13T09:00:00:Z","depth":"0","parameterNumber":2,"parameterNumberName":"U-component_of_CURRENTS"},"data":[0,0,0,0,0,0,0,0,0,0,0,0,0,0,0,0,0,0,0,0,0,0,0,0,0,0,0,0,0,0,0,0,0,0,0,0,0,0,0,0,0,0,0,0,0,0,0,0,0,0,0,0,0,0,0,0,0,0,-0.2206,-0.2207,0,-0.2244,-0.2245,-0.2245,-0.223,-0.2229,-0.2229,-0.2228,-0.2207,-0.2207,-0.2207,0,0,0,0,0,0,0,0,0,0,0,0,0,-0.211,-0.2112,-0.2206,-0.2207,-0.2207,-0.2244,-0.2245,-0.2245,-0.223,-0.2229,-0.2228,-0.2228,-0.2207,-0.2207,-0.2207,0,0,0,0,0,0,0,0,0,0,0,0,0,-0.2148,-0.2112,-0.2206,-0.2207,-0.2207,-0.2244,-0.2245,-0.2245,-0.223,-0.2229,-0.2228,-0.2227,-0.2207,-0.2207,-0.2207,-0.2226,0,0,-0.2207,-0.2207,0,0,0,0,0,0,0,0,-0.2146,-0.2151,-0.2206,-0.2207,-0.2207,-0.2234,-0.2203,-0.2237,-0.223,-0.2218,-0.2228,-0.2227,-0.2213,-0.2212,-0.2218,-0.2225,-0.2224,-0.2207,-0.2207,-0.2207,-0.2207,0,0,0,0,0,0,0,-0.2143,-0.2149,-0.2218,-0.2207,-0.2208,-0.2202,-0.2206,-0.2209,-0.2217,-0.2219,-0.2219,-0.2228,-0.2212,-0.2218,-0.2218,-0.2224,-0.2207,-0.2207,-0.2207,-0.2207,-0.2249,-0.225,0,0,0,0,0,0,-0.2146,-0.2147,-0.2217,-0.222,-0.2177,-0.2205,-0.2209,-0.2224,-0.2218,-0.2218,-0.2229,-0.2227,-0.2219,-0.2218,-0.2217,-0.2247,-0.2207,-0.2207,-0.2207,-0.2248,-0.225,-0.2251,0,0,0,0,0,0,-0.2144,-0.2152,-0.2215,-0.2186,-0.2194,-0.2208,-0.2224,-0.2225,-0.2228,-0.2227,-0.2224,-0.2231,-0.2218,-0.2217,-0.2225,-0.2245,-0.2207,-0.2207,-0.2247,-0.2249,-0.225,-0.2302,0,0,0,0,0,0,-0.2141,-0.2151,-0.2157,-0.2186,-0.2196,-0.2243,-0.2226,-0.2227,-0.2237,-0.2235,-0.2228,-0.2225,-0.2217,-0.2225,-0.2225,-0.2245,-0.2207,-0.2246,-0.2248,-0.225,-0.2299,-0.2305,-0.231,0,0,0,0,0,-0.2138,-0.2154,-0.2158,-0.2166,-0.2206,-0.2244,-0.2248,-0.2252,-0.2238,-0.2248,-0.2242,-0.2225,-0.2238,-0.2226,-0.2226,-0.2246,-0.2245,-0.2247,-0.225,-0.2296,-0.2304,-0.231,0,0,0,0,0,0,-0.2112,-0.2155,-0.2159,-0.2186,-0.2215,-0.2243,-0.225,-0.2254,-0.2258,-0.225,-0.2239,-0.2237,-0.2254,-0.2243,-0.223,-0.2265,-0.2239,-0.2241,-0.2274,-0.2281,-0.2287,-0.2288,-0.2207,0,0,0,0,0,-0.2112,-0.2133,-0.2174,-0.2193,-0.2209,-0.2228,-0.224,-0.225,-0.2262,-0.2262,-0.2259,-0.2257,-0.2266,-0.2267,-0.2272,-0.2289,-0.2285,-0.2302,-0.2308,-0.2313,-0.2314,-0.2331,-0.2338,-0.2259,-0.2259,-0.2259,0,0,-0.2105,-0.2132,-0.2142,-0.2188,-0.2205,-0.2242,-0.2232,-0.2259,-0.2285,-0.2259,-0.2281,-0.2278,-0.2276,-0.2299,-0.2305,-0.229,-0.2336,-0.2316,-0.2321,-0.2319,-0.2334,-0.2342,-0.2349,-0.2261,-0.226,-0.226,0,0,-0.211,-0.2129,-0.2151,-0.2183,-0.2222,-0.2244,-0.2254,-0.2287,-0.2296,-0.2323,-0.2313,-0.2324,-0.2331,-0.2342,-0.2346,-0.2387,-0.2368,-0.2385,-0.2414,-0.2431,-0.2437,-0.2443,-0.2457,-0.2463,-0.2386,-0.2386,-0.2387,0,-0.2097,-0.2137,-0.2162,-0.2199,-0.2226,-0.2248,-0.2283,-0.2306,-0.2337,-0.2351,-0.2334,-0.2363,-0.2357,-0.2394,-0.2404,-0.2402,-0.2401,-0.2387,-0.2438,-0.2444,-0.2448,-0.2461,-0.2468,-0.2389,-0.2389,-0.2389,-0.2388,0,-0.2126,-0.2159,-0.2176,-0.2231,-0.2265,-0.2297,-0.2343,-0.2369,-0.2378,-0.2399,-0.2432,-0.2431,-0.2445,-0.245,-0.2435,-0.2473,-0.246,-0.2445,-0.2419,-0.246,-0.2471,-0.2476,-0.2393,-0.2392,-0.2391,-0.2391,0,0,-0.2087,-0.2178,-0.2181,-0.2216,-0.2284,-0.2316,-0.2368,-0.2423,-0.2453,-0.2476,-0.2512,-0.2528,-0.252,-0.2523,-0.2515,-0.2526,-0.2559,-0.2495,-0.2495,-0.2508,-0.2593,-0.253,-0.253,-0.2549,-0.255,-0.2551,-0.259,0,-0.2097,-0.2167,-0.2213,-0.2277,-0.2317,-0.2367,-0.2416,-0.2468,-0.2499,-0.2539,-0.2552,-0.2576,-0.2552,-0.2553,-0.2566,-0.2559,-0.2575,-0.255,-0.2553,-0.2553,-0.2491,-0.2535,-0.2417,-0.2436,-0.2596,-0.2597,-0.2597,0,-0.2102,-0.2153,-0.2217,-0.2309,-0.233,-0.2369,-0.2446,-0.2496,-0.2563,-0.2586,-0.2619,-0.2626,-0.2654,-0.2618,-0.2642,-0.2624,-0.2611,-0.2606,-0.2607,-0.2531,-0.2501,-0.242,-0.244,-0.2428,-0.2606,-0.2605,-0.2604,0,-0.2056,-0.2152,-0.22,-0.2232,-0.2339,-0.2369,-0.2418,-0.2496,-0.2539,-0.2607,-0.2635,-0.2677,-0.2683,-0.269,-0.267,-0.2658,-0.2687,-0.2672,-0.2613,-0.2609,-0.25,-0.2483,-0.2503,-0.2693,-0.2693,-0.2693,-0.2692,0,-0.2046,-0.2083,-0.2178,-0.2206,-0.2259,-0.2341,-0.2398,-0.2456,-0.2536,-0.2581,-0.264,-0.2671,-0.2696,-0.2713,-0.2698,-0.2669,-0.2712,-0.2626,-0.2617,-0.2515,-0.25,-0.2475,-0.2488,-0.2694,-0.2694,-0.2693,-0.2693,0,-0.1985,-0.2052,-0.2108,-0.2209,-0.2238,-0.2268,-0.237,-0.2409,-0.2498,-0.2557,-0.2576,-0.2665,-0.2691,-0.2715,-0.2727,-0.269,-0.2633,-0.2658,-0.2534,-0.2509,-0.2429,-0.2448,-0.2437,-0.2371,-0.2609,-0.2608,-0.2607,0,-0.1961,-0.1983,-0.2079,-0.2101,-0.214,-0.2203,-0.2243,-0.236,-0.2404,-0.2539,-0.2553,-0.2624,-0.2647,-0.2664,-0.2629,-0.2615,-0.2592,-0.2483,-0.2437,-0.2415,-0.2432,-0.243,-0.2374,-0.2323,-0.232,-0.2317,-0.2315,0,-0.19,-0.1926,-0.1968,-0.2014,-0.2052,-0.2107,-0.2172,-0.2212,-0.2344,-0.2405,-0.2478,-0.2517,-0.2561,-0.2506,-0.2494,-0.2455,-0.2411,-0.2425,-0.2435,-0.2237,-0.2205,-0.2137,-0.2317,-0.229,-0.2293,-0.2295,-0.2296,-0.2297,-0.1828,-0.1832,-0.1875,-0.191,-0.195,-0.1978,-0.1985,-0.207,-0.2129,-0.2205,-0.2324,-0.2365,-0.2371,-0.2345,-0.2317,-0.2217,-0.2261,-0.2139,-0.2176,-0.2186,-0.2082,-0.2208,-0.2147,-0.2148,-0.215,-0.2151,-0.2152,0,-0.1732,-0.1745,-0.177,-0.1801,-0.1791,-0.1854,-0.1908,-0.1896,-0.1915,-0.2032,-0.2084,-0.2163,-0.2106,-0.2134,-0.2073,-0.1993,-0.1932,-0.1943,-0.1918,-0.188,-0.2012,-0.1957,-0.1811,-0.1811,-0.1811,-0.1811,-0.1811,-0.1811,-0.168,-0.1662,-0.168,-0.1628,-0.1641,-0.1589,-0.1591,-0.1594,-0.1645,-0.171,-0.1813,-0.1943,-0.1993,-0.21,-0.1997,-0.1896,-0.1849,-0.1777,-0.182,-0.1928,-0.1949,-0.1969,-0.1921,-0.177,-0.177,-0.1595,-0.1594,-0.1594]},{"header":{"parameterUnit":"m.s-1","parameterCategory":2,"la1":30.2991,"la2":30.254,"lo1":-89.0895,"lo2":-89.0444,"dy":0.0017,"dx":0.0017,"nx":28,"ny":28,"refTime":"2024-12-13T09:00:00:Z","depth":"0","parameterNumber":3,"parameterNumberName":"V-component_of_CURRENTS"},"data":[0,0,0,0,0,0,0,0,0,0,0,0,0,0,0,0,0,0,0,0,0,0,0,0,0,0,0,0,0,0,0,0,0,0,0,0,0,0,0,0,0,0,0,0,0,0,0,0,0,0,0,0,0,0,0,0,0,0,-0.0149,-0.0148,0,-0.0058,-0.0056,-0.0055,0.0003,0.0003,0.0003,0.0003,0.0117,0.012,0.0123,0,0,0,0,0,0,0,0,0,0,0,0,0,-0.022,-0.0219,-0.0149,-0.0148,-0.0147,-0.0058,-0.0056,-0.0055,0.0003,0.0003,0.0003,0.0003,0.0116,0.012,0.0123,0,0,0,0,0,0,0,0,0,0,0,0,0,-0.0164,-0.0219,-0.0149,-0.0108,-0.0104,-0.0058,-0.0056,-0.0055,0.0002,0.0003,0.0003,0.0004,0.0115,0.0119,0.0124,0.0142,0,0,0.0136,0.0138,0,0,0,0,0,0,0,0,-0.0168,-0.0162,-0.0115,-0.0111,-0.0106,-0.0039,-0.0039,0.0012,0.0002,-0.0037,0.0003,0.0004,0.0066,0.0074,0.0092,0.0147,0.0152,0.0137,0.0139,0.0141,0.0142,0,0,0,0,0,0,0,-0.0172,-0.0165,-0.0112,-0.0114,-0.0108,-0.0076,-0.0068,-0.0029,0.0012,-0.0033,-0.0029,-0.002,0.0069,0.0087,0.0095,0.0154,0.0137,0.014,0.0143,0.0145,0.0235,0.0235,0,0,0,0,0,0,-0.0188,-0.0169,-0.0115,-0.0109,-0.0137,-0.0075,-0.0066,-0.006,0.0012,0.0023,-0.0021,-0.0018,0.008,0.009,0.0099,0.0123,0.0141,0.0145,0.0147,0.0235,0.0235,0.0235,0,0,0,0,0,0,-0.019,-0.0184,-0.0119,-0.0137,-0.0127,-0.0075,-0.0068,-0.0059,-0.004,0.0021,0.0032,-0.0013,0.0081,0.0093,0.0132,0.0128,0.0147,0.0151,0.0235,0.0235,0.0235,0.0173,0,0,0,0,0,0,-0.0192,-0.0185,-0.0188,-0.0139,-0.0127,-0.0101,-0.0068,-0.0057,-0.0036,-0.0031,0.0032,0.0043,0.0082,0.0126,0.0137,0.0134,0.0154,0.0235,0.0235,0.0235,0.0175,0.017,0.0167,0,0,0,0,0,-0.0195,-0.0204,-0.0189,-0.0183,-0.0132,-0.0101,-0.0092,-0.0052,-0.0036,-0.0034,0.0012,0.0041,0.0132,0.0129,0.0142,0.0141,0.0235,0.0235,0.0235,0.0177,0.0171,0.0167,0,0,0,0,0,0,-0.0237,-0.0198,-0.018,-0.0177,-0.0145,-0.0092,-0.0087,-0.0058,-0.002,-0.0015,0.0043,0.0057,0.0088,0.0123,0.0118,0.0166,0.0187,0.0189,0.0138,0.0134,0.013,0.0113,0.0157,0,0,0,0,0,-0.0249,-0.0245,-0.02,-0.0199,-0.0186,-0.0138,-0.0121,-0.0094,-0.0052,-0.0035,0.001,0.0057,0.0097,0.0121,0.0159,0.0188,0.0222,0.0195,0.0191,0.0187,0.0182,0.0225,0.0224,0.0234,0.0234,0.0234,0,0,-0.0264,-0.0243,-0.0241,-0.0208,-0.018,-0.0171,-0.0127,-0.0107,-0.0095,-0.0028,-0.0002,0.0042,0.01,0.0131,0.0148,0.0161,0.0203,0.0187,0.0183,0.018,0.0225,0.0224,0.0223,0.0234,0.0234,0.0234,0,0,-0.03,-0.0277,-0.0287,-0.0265,-0.0231,-0.0199,-0.0197,-0.0147,-0.0121,-0.0089,-0.004,0.0003,0.0062,0.0105,0.0134,0.0131,0.0176,0.0141,0.0112,0.0154,0.0153,0.0153,0.0196,0.02,0.0142,0.0142,0.0142,0,-0.0321,-0.0326,-0.0285,-0.0289,-0.0278,-0.0218,-0.0226,-0.0189,-0.0132,-0.0112,-0.0092,0.0001,0.005,0.0095,0.0096,0.0122,0.0151,0.0125,0.0147,0.0148,0.0149,0.0193,0.0199,0.0139,0.0139,0.014,0.014,0,-0.0361,-0.0365,-0.037,-0.0355,-0.0337,-0.0334,-0.0282,-0.0259,-0.022,-0.0177,-0.0127,-0.0055,0.0,0.0023,0.0062,0.0093,0.0115,0.0133,0.0156,0.0144,0.0192,0.0199,0.0135,0.0136,0.0137,0.0137,0,0,-0.0408,-0.0402,-0.0403,-0.0415,-0.0374,-0.0367,-0.0344,-0.0306,-0.0294,-0.0227,-0.0202,-0.0121,-0.0076,-0.004,0.0016,0.0059,0.0098,0.0094,0.0098,0.013,0.019,0.0234,0.0246,0.0117,0.0118,0.0119,0.0221,0,-0.0453,-0.049,-0.0463,-0.049,-0.0506,-0.0448,-0.0435,-0.0389,-0.0336,-0.0294,-0.0204,-0.0159,-0.0101,-0.0075,-0.0023,0.007,0.0113,0.0069,0.0203,0.0207,0.0242,0.0254,0.0282,0.0379,0.0228,0.023,0.023,0,-0.0499,-0.0521,-0.0562,-0.0569,-0.0568,-0.0567,-0.0538,-0.0515,-0.0432,-0.0391,-0.032,-0.0245,-0.0157,-0.0116,0.0033,0.0001,0.0085,0.0156,0.0162,0.0228,0.0264,0.0368,0.0397,0.057,0.0241,0.0241,0.024,0,-0.0563,-0.0587,-0.0627,-0.0629,-0.0622,-0.0624,-0.0609,-0.0546,-0.0532,-0.0447,-0.0424,-0.0306,-0.0243,-0.0126,0.0034,0.0032,0.0193,0.0211,0.0329,0.0333,0.0398,0.0406,0.0605,0.0301,0.0301,0.03,0.03,0,-0.0623,-0.0654,-0.0664,-0.0688,-0.0731,-0.0692,-0.0712,-0.0673,-0.062,-0.0604,-0.048,-0.0438,-0.0244,-0.012,0.0014,0.02,0.0182,0.0329,0.0364,0.0377,0.0383,0.0568,0.0627,0.0304,0.0303,0.0303,0.0302,0,-0.0684,-0.0689,-0.0741,-0.0758,-0.0764,-0.0792,-0.0791,-0.08,-0.0735,-0.0709,-0.0685,-0.0528,-0.0352,-0.0157,0.0052,0.0179,0.0447,0.0408,0.0414,0.0449,0.072,0.0772,0.0977,0.1056,0.0561,0.0562,0.0564,0,-0.0718,-0.0752,-0.0804,-0.0842,-0.0853,-0.0886,-0.0908,-0.0864,-0.0864,-0.0765,-0.0756,-0.0578,-0.0438,-0.0103,0.0156,0.0414,0.0528,0.0579,0.0584,0.075,0.0835,0.0865,0.0918,0.0649,0.0651,0.0653,0.0654,0,-0.0785,-0.08,-0.0845,-0.0933,-0.0974,-0.102,-0.1039,-0.1057,-0.0992,-0.0948,-0.0849,-0.0726,-0.0373,-0.0047,0.0302,0.0456,0.0703,0.0621,0.0797,0.0927,0.0969,0.1056,0.0567,0.0669,0.0667,0.0666,0.0665,0.0665,-0.0824,-0.0876,-0.094,-0.1018,-0.1074,-0.1132,-0.117,-0.1165,-0.1153,-0.1059,-0.093,-0.0716,-0.0224,0.029,0.0476,0.0895,0.0848,0.102,0.1071,0.1089,0.1166,0.0708,0.0845,0.0844,0.0844,0.0843,0.0843,0,-0.0875,-0.0935,-0.1023,-0.1112,-0.119,-0.1195,-0.1241,-0.1255,-0.1238,-0.1096,-0.0962,-0.0443,0.0049,0.0507,0.1099,0.1331,0.137,0.1447,0.1509,0.1542,0.1156,0.1162,0.1367,0.1367,0.1367,0.1367,0.1366,0.1366,-0.0904,-0.1,-0.1053,-0.1192,-0.1251,-0.1332,-0.1357,-0.1344,-0.126,-0.1017,-0.0731,-0.0502,0.0192,0.1156,0.1718,0.1769,0.1946,0.1931,0.2024,0.1777,0.1741,0.1707,0.1731,0.2052,0.2053,0.2392,0.2396,0.2399]}],[{"header":{"parameterUnit":"m.s-1","parameterCategory":2,"la1":30.2991,"la2":30.254,"lo1":-89.0895,"lo2":-89.0444,"dy":0.0017,"dx":0.0017,"nx":28,"ny":28,"refTime":"2024-12-13T09:00:00:Z","depth":"2","parameterNumber":2,"parameterNumberName":"U-component_of_CURRENTS"},"data":[0,0,0,0,0,0,0,0,0,0,0,0,0,0,0,0,0,0,0,0,0,0,0,0,0,0,0,0,0,0,0,0,0,0,0,0,0,0,0,0,0,0,0,0,0,0,0,0,0,0,0,0,0,0,0,0,0,0,-0.1998,-0.1998,0,-0.2033,-0.2034,-0.2034,-0.2024,-0.2023,-0.2023,-0.2022,-0.2008,-0.2008,-0.2008,0,0,0,0,0,0,0,0,0,0,0,0,0,-0.1908,-0.191,-0.1998,-0.1999,-0.1999,-0.2033,-0.2034,-0.2034,-0.2024,-0.2023,-0.2023,-0.2022,-0.2008,-0.2008,-0.2008,0,0,0,0,0,0,0,0,0,0,0,0,0,-0.1943,-0.191,-0.1998,-0.2001,-0.2001,-0.2033,-0.2034,-0.2034,-0.2024,-0.2023,-0.2023,-0.2022,-0.2008,-0.2008,-0.2008,-0.2022,0,0,-0.2008,-0.2008,0,0,0,0,0,0,0,0,-0.1941,-0.1946,-0.1999,-0.2,-0.2001,-0.2026,-0.1997,-0.2029,-0.2024,-0.2012,-0.2022,-0.2022,-0.2012,-0.2012,-0.2016,-0.2022,-0.2021,-0.2008,-0.2008,-0.2008,-0.2008,0,0,0,0,0,0,0,-0.1939,-0.1944,-0.2009,-0.2,-0.2002,-0.1996,-0.2,-0.2003,-0.2012,-0.2013,-0.2013,-0.2022,-0.2011,-0.2016,-0.2016,-0.2021,-0.2008,-0.2008,-0.2008,-0.2008,-0.2053,-0.2054,0,0,0,0,0,0,-0.1942,-0.1942,-0.2008,-0.201,-0.1972,-0.1998,-0.2003,-0.2016,-0.2013,-0.2013,-0.2023,-0.2022,-0.2016,-0.2016,-0.2015,-0.205,-0.2008,-0.2008,-0.2008,-0.2051,-0.2053,-0.2054,0,0,0,0,0,0,-0.194,-0.1948,-0.2006,-0.1979,-0.1986,-0.2001,-0.2016,-0.2018,-0.2023,-0.2022,-0.202,-0.2028,-0.2016,-0.2015,-0.2026,-0.2048,-0.2008,-0.2009,-0.205,-0.2052,-0.2053,-0.2107,0,0,0,0,0,0,-0.1937,-0.1947,-0.1954,-0.1979,-0.1988,-0.2033,-0.2017,-0.2019,-0.2031,-0.203,-0.2025,-0.2023,-0.2015,-0.2026,-0.2026,-0.2047,-0.2009,-0.2049,-0.2051,-0.2053,-0.2103,-0.211,-0.2116,0,0,0,0,0,-0.1934,-0.195,-0.1954,-0.1962,-0.1999,-0.2034,-0.2038,-0.2043,-0.2032,-0.2043,-0.2039,-0.2023,-0.2039,-0.2027,-0.2027,-0.2049,-0.2048,-0.205,-0.2053,-0.2101,-0.2109,-0.2115,0,0,0,0,0,0,-0.1913,-0.1952,-0.1957,-0.1983,-0.201,-0.2034,-0.2042,-0.2047,-0.2053,-0.2048,-0.2037,-0.2036,-0.2055,-0.2045,-0.2032,-0.2068,-0.2041,-0.2044,-0.2078,-0.2085,-0.2091,-0.2093,-0.2009,0,0,0,0,0,-0.1914,-0.1934,-0.1971,-0.199,-0.2005,-0.2023,-0.2035,-0.2045,-0.2057,-0.2059,-0.2058,-0.2058,-0.2067,-0.2069,-0.2074,-0.2093,-0.2089,-0.2107,-0.2113,-0.2118,-0.212,-0.2137,-0.2145,-0.2062,-0.2062,-0.2062,0,0,-0.1909,-0.1933,-0.1943,-0.1986,-0.2003,-0.2037,-0.2028,-0.2055,-0.2081,-0.2057,-0.2081,-0.2079,-0.2077,-0.2101,-0.2108,-0.2094,-0.2142,-0.2122,-0.2126,-0.2125,-0.2141,-0.2149,-0.2156,-0.2064,-0.2064,-0.2064,0,0,-0.1915,-0.1933,-0.1955,-0.1985,-0.2023,-0.2042,-0.2053,-0.2085,-0.2095,-0.2123,-0.2114,-0.2128,-0.2136,-0.2147,-0.215,-0.2193,-0.2175,-0.2192,-0.2223,-0.224,-0.2247,-0.2252,-0.2267,-0.2273,-0.2194,-0.2194,-0.2194,0,-0.1906,-0.1943,-0.1966,-0.2001,-0.2027,-0.2048,-0.2082,-0.2104,-0.2135,-0.215,-0.2136,-0.2168,-0.2162,-0.2199,-0.221,-0.2207,-0.2208,-0.2195,-0.2248,-0.2253,-0.2258,-0.2271,-0.2278,-0.2197,-0.2196,-0.2196,-0.2196,0,-0.1933,-0.1966,-0.1982,-0.2034,-0.2066,-0.2098,-0.2141,-0.2168,-0.218,-0.22,-0.2236,-0.2236,-0.2252,-0.2258,-0.2243,-0.2283,-0.227,-0.2254,-0.2228,-0.227,-0.2281,-0.2287,-0.2201,-0.22,-0.2199,-0.2198,0,0,-0.1901,-0.1985,-0.1989,-0.2022,-0.2087,-0.2117,-0.2169,-0.2222,-0.2254,-0.2278,-0.2316,-0.2334,-0.2329,-0.2332,-0.2325,-0.2337,-0.2373,-0.2308,-0.2308,-0.2321,-0.2408,-0.2344,-0.2344,-0.2363,-0.2364,-0.2365,-0.2405,0,-0.1911,-0.1977,-0.202,-0.2082,-0.2121,-0.2169,-0.2216,-0.2267,-0.23,-0.2342,-0.2356,-0.2383,-0.236,-0.2365,-0.2378,-0.2373,-0.2389,-0.2363,-0.2367,-0.2367,-0.2304,-0.2349,-0.2133,-0.2144,-0.241,-0.2411,-0.2412,0,-0.1918,-0.1966,-0.2027,-0.2115,-0.2135,-0.2173,-0.2251,-0.2299,-0.2366,-0.2391,-0.2426,-0.2435,-0.2466,-0.2431,-0.2458,-0.244,-0.2428,-0.2422,-0.2424,-0.2347,-0.2314,-0.2144,-0.2145,-0.2422,-0.2421,-0.242,-0.2419,0,-0.1877,-0.1968,-0.2015,-0.2045,-0.2146,-0.2178,-0.2226,-0.2303,-0.2346,-0.2417,-0.2446,-0.2489,-0.2499,-0.2507,-0.2488,-0.2476,-0.2506,-0.2491,-0.243,-0.2426,-0.2233,-0.2209,-0.2512,-0.2512,-0.2512,-0.2512,-0.2511,0,-0.1869,-0.1906,-0.1996,-0.2024,-0.2077,-0.2155,-0.2213,-0.2271,-0.2351,-0.2395,-0.2456,-0.2486,-0.2514,-0.253,-0.2515,-0.2488,-0.253,-0.2444,-0.2434,-0.2246,-0.2224,-0.2451,-0.2444,-0.2513,-0.2513,-0.2512,-0.2512,0,-0.1814,-0.1878,-0.1933,-0.203,-0.2058,-0.209,-0.219,-0.223,-0.2319,-0.2378,-0.2399,-0.2485,-0.2512,-0.2535,-0.2546,-0.2509,-0.2499,-0.2476,-0.2253,-0.2216,-0.2406,-0.2401,-0.243,-0.2428,-0.2427,-0.2426,-0.2424,0,-0.1793,-0.1815,-0.1908,-0.1931,-0.1969,-0.2033,-0.2073,-0.2187,-0.223,-0.2363,-0.2376,-0.2447,-0.2464,-0.2479,-0.2431,-0.2412,-0.2469,-0.2197,-0.2139,-0.2412,-0.2399,-0.2397,-0.2394,-0.1909,-0.1904,-0.19,-0.1896,0,-0.1737,-0.1764,-0.1805,-0.1851,-0.189,-0.1943,-0.2008,-0.2046,-0.2174,-0.2232,-0.23,-0.2333,-0.2362,-0.2244,-0.2224,-0.2177,-0.2186,-0.211,-0.2448,-0.1966,-0.1924,-0.1911,-0.1924,-0.1858,-0.1862,-0.1865,-0.1867,-0.1868,-0.1673,-0.1677,-0.1719,-0.1755,-0.1796,-0.1823,-0.1829,-0.1907,-0.196,-0.2015,-0.2131,-0.2113,-0.2109,-0.1981,-0.1904,-0.1841,-0.1996,-0.1882,-0.1894,-0.191,-0.1846,-0.1803,-0.1703,-0.1705,-0.1708,-0.171,-0.1712,0,-0.1582,-0.1596,-0.1622,-0.1653,-0.1644,-0.1707,-0.1757,-0.1733,-0.1743,-0.1808,-0.1841,-0.1677,-0.1613,-0.1632,-0.1481,-0.1466,-0.1433,-0.1396,-0.1337,-0.1375,-0.1409,-0.1317,-0.1035,-0.1033,-0.1032,-0.103,0,0,-0.1533,-0.1516,-0.1533,-0.1486,-0.1502,-0.145,-0.145,-0.1429,-0.1438,-0.1396,-0.1383,-0.1511,-0.1564,-0.1292,-0.1233,-0.1111,-0.1228,-0.1051,-0.1588,-0.1553,-0.1585,-0.1678,-0.1579,0,0,0,0,0]},{"header":{"parameterUnit":"m.s-1","parameterCategory":2,"la1":30.2991,"la2":30.254,"lo1":-89.0895,"lo2":-89.0444,"dy":0.0017,"dx":0.0017,"nx":28,"ny":28,"refTime":"2024-12-13T09:00:00:Z","depth":"2","parameterNumber":3,"parameterNumberName":"V-component_of_CURRENTS"},"data":[0,0,0,0,0,0,0,0,0,0,0,0,0,0,0,0,0,0,0,0,0,0,0,0,0,0,0,0,0,0,0,0,0,0,0,0,0,0,0,0,0,0,0,0,0,0,0,0,0,0,0,0,0,0,0,0,0,0,-0.0122,-0.0122,0,-0.0036,-0.0035,-0.0034,0.0021,0.0021,0.0022,0.0022,0.0131,0.0133,0.0136,0,0,0,0,0,0,0,0,0,0,0,0,0,-0.0187,-0.0187,-0.0123,-0.0122,-0.0121,-0.0037,-0.0035,-0.0034,0.0021,0.0021,0.0022,0.0022,0.013,0.0133,0.0136,0,0,0,0,0,0,0,0,0,0,0,0,0,-0.0135,-0.0186,-0.0123,-0.0084,-0.0079,-0.0037,-0.0035,-0.0034,0.0021,0.0021,0.0022,0.0022,0.0129,0.0133,0.0137,0.0154,0,0,0.0149,0.0151,0,0,0,0,0,0,0,0,-0.0138,-0.0133,-0.009,-0.0086,-0.0081,-0.0019,-0.0018,0.003,0.0021,-0.0016,0.0022,0.0022,0.0082,0.009,0.0106,0.0159,0.0163,0.0149,0.0152,0.0153,0.0154,0,0,0,0,0,0,0,-0.0142,-0.0136,-0.0087,-0.0089,-0.0084,-0.0052,-0.0045,-0.0009,0.0031,-0.0013,-0.0009,-0.0001,0.0085,0.0102,0.0109,0.0165,0.0149,0.0153,0.0155,0.0157,0.0243,0.0243,0,0,0,0,0,0,-0.0158,-0.014,-0.009,-0.0085,-0.011,-0.0052,-0.0044,-0.0038,0.003,0.0041,-0.0001,0.0002,0.0095,0.0104,0.0113,0.0137,0.0153,0.0157,0.0159,0.0243,0.0243,0.0243,0,0,0,0,0,0,-0.0159,-0.0154,-0.0094,-0.0111,-0.0101,-0.0052,-0.0046,-0.0037,-0.002,0.0039,0.005,0.0006,0.0096,0.0108,0.0145,0.0142,0.0159,0.0162,0.0243,0.0243,0.0243,0.0185,0,0,0,0,0,0,-0.0162,-0.0155,-0.0159,-0.0112,-0.0101,-0.0077,-0.0046,-0.0036,-0.0016,-0.0011,0.0049,0.0059,0.0097,0.0139,0.0149,0.0148,0.0166,0.0243,0.0243,0.0243,0.0187,0.0183,0.018,0,0,0,0,0,-0.0164,-0.0174,-0.016,-0.0153,-0.0106,-0.0078,-0.0069,-0.0032,-0.0016,-0.0014,0.003,0.0057,0.0145,0.0142,0.0154,0.0154,0.0243,0.0243,0.0243,0.0189,0.0184,0.018,0,0,0,0,0,0,-0.0204,-0.0168,-0.0151,-0.0149,-0.0119,-0.0069,-0.0064,-0.0038,-0.0001,0.0004,0.0059,0.0073,0.0103,0.0136,0.0131,0.0178,0.0197,0.0199,0.0152,0.0148,0.0144,0.0129,0.0169,0,0,0,0,0,-0.0216,-0.0213,-0.0171,-0.017,-0.0159,-0.0113,-0.0097,-0.0071,-0.0032,-0.0015,0.0027,0.0072,0.0111,0.0135,0.0171,0.0199,0.0232,0.0206,0.0202,0.0198,0.0194,0.0238,0.0238,0.0242,0.0242,0.0242,0,0,-0.0231,-0.0211,-0.0209,-0.0179,-0.0153,-0.0144,-0.0102,-0.0084,-0.0072,-0.0009,0.0016,0.0059,0.0114,0.0144,0.0161,0.0173,0.0215,0.0198,0.0195,0.0192,0.0238,0.0238,0.0237,0.0242,0.0242,0.0242,0,0,-0.0265,-0.0244,-0.0253,-0.0233,-0.0201,-0.0171,-0.017,-0.0123,-0.0098,-0.0067,-0.002,0.0022,0.0078,0.0121,0.0149,0.0147,0.019,0.0155,0.0129,0.0172,0.0172,0.0172,0.0213,0.0217,0.0157,0.0157,0.0157,0,-0.0285,-0.0291,-0.0252,-0.0255,-0.0246,-0.0189,-0.0197,-0.0161,-0.0108,-0.0088,-0.0069,0.0021,0.0068,0.0113,0.0114,0.0138,0.0167,0.0141,0.0166,0.0168,0.0169,0.021,0.0216,0.0154,0.0154,0.0155,0.0155,0,-0.0323,-0.0327,-0.0333,-0.0318,-0.0301,-0.0299,-0.0249,-0.0227,-0.019,-0.0148,-0.0099,-0.003,0.0023,0.0046,0.0082,0.0116,0.0134,0.0152,0.0175,0.0165,0.0209,0.0216,0.015,0.0151,0.0152,0.0153,0,0,-0.0369,-0.0363,-0.0364,-0.0375,-0.0336,-0.0329,-0.0307,-0.027,-0.0258,-0.0193,-0.0168,-0.009,-0.0047,-0.0012,0.0042,0.0086,0.0126,0.0118,0.0122,0.0153,0.0217,0.025,0.0262,0.0146,0.0147,0.0147,0.0244,0,-0.0412,-0.0447,-0.0421,-0.0446,-0.0461,-0.0406,-0.0392,-0.0347,-0.0297,-0.0256,-0.0168,-0.0124,-0.0069,-0.0044,0.0009,0.0098,0.0141,0.0098,0.0228,0.0231,0.0258,0.027,0.0228,0.0312,0.0251,0.0252,0.0253,0,-0.0456,-0.0476,-0.0515,-0.0521,-0.052,-0.0519,-0.049,-0.0468,-0.0387,-0.0347,-0.0277,-0.0205,-0.0118,-0.0079,0.0067,0.0036,0.0116,0.0185,0.0191,0.0246,0.0278,0.0314,0.0327,0.0265,0.0264,0.0263,0.0262,0,-0.0518,-0.0539,-0.0578,-0.0579,-0.0571,-0.0573,-0.0559,-0.0497,-0.0483,-0.04,-0.0378,-0.0261,-0.02,-0.0086,0.0067,0.0066,0.0222,0.0242,0.0347,0.035,0.0353,0.0356,0.0331,0.0331,0.0331,0.033,0.033,0,-0.0575,-0.0604,-0.0613,-0.0636,-0.0677,-0.0639,-0.0658,-0.062,-0.0567,-0.0551,-0.0431,-0.0391,-0.0201,-0.0081,0.0048,0.0224,0.0212,0.0347,0.038,0.0333,0.0332,0.0321,0.0318,0.0334,0.0333,0.0332,0.0332,0,-0.0634,-0.0638,-0.0688,-0.0703,-0.0709,-0.0737,-0.0735,-0.0743,-0.068,-0.0654,-0.063,-0.0479,-0.031,-0.0122,0.0081,0.0202,0.0361,0.0419,0.0353,0.0377,0.0464,0.0458,0.0554,0.0556,0.0558,0.0559,0.0561,0,-0.0668,-0.07,-0.0749,-0.0786,-0.0797,-0.0829,-0.085,-0.0806,-0.0805,-0.0709,-0.0699,-0.0529,-0.0398,-0.0079,0.0159,0.0403,0.0403,0.0499,0.0497,0.0466,0.0489,0.0479,0.0471,0.0479,0.0479,0.048,0.048,0,-0.0733,-0.0748,-0.079,-0.0875,-0.0915,-0.0958,-0.0976,-0.0992,-0.0928,-0.0885,-0.0791,-0.0675,-0.035,-0.0076,0.0249,0.0384,0.0462,0.0516,0.0505,0.0428,0.0403,0.0422,0.0415,0.0483,0.0483,0.0482,0.0482,0.0482,-0.0771,-0.0822,-0.0883,-0.0959,-0.1012,-0.1067,-0.1103,-0.1095,-0.1083,-0.0987,-0.087,-0.0672,-0.0387,0.0077,0.0306,0.0526,0.0529,0.0581,0.0577,0.0573,0.0546,0.0525,0.0623,0.0624,0.0624,0.0624,0.0625,0,-0.0822,-0.088,-0.0964,-0.1049,-0.1123,-0.113,-0.1172,-0.1177,-0.1158,-0.1025,-0.0899,-0.059,-0.0263,0.0034,0.0385,0.0598,0.0579,0.0628,0.0556,0.0552,0.0548,0.0517,0.0589,0.0589,0.059,0.059,0,0,-0.085,-0.0942,-0.0993,-0.1125,-0.1183,-0.1258,-0.1282,-0.1253,-0.1171,-0.1039,-0.0875,-0.0636,-0.0271,-0.0031,0.0238,0.042,0.0428,0.0437,0.0442,0.032,0.0314,0.0498,0.0443,0,0,0,0,0]}],[{"header":{"parameterUnit":"m.s-1","parameterCategory":2,"la1":30.2991,"la2":30.254,"lo1":-89.0895,"lo2":-89.0444,"dy":0.0017,"dx":0.0017,"nx":28,"ny":28,"refTime":"2024-12-13T09:00:00:Z","depth":"4","parameterNumber":2,"parameterNumberName":"U-component_of_CURRENTS"},"data":[0,0,0,0,0,0,0,0,0,0,0,0,0,0,0,0,0,0,0,0,0,0,0,0,0,0,0,0,0,0,0,0,0,0,0,0,0,0,0,0,0,0,0,0,0,0,0,0,0,0,0,0,0,0,0,0,0,0,-0.1392,-0.1393,0,-0.1452,-0.1452,-0.1453,-0.1489,-0.149,-0.149,-0.149,-0.1539,-0.154,-0.1541,0,0,0,0,0,0,0,0,0,0,0,0,0,-0.1295,-0.1296,-0.1392,-0.1393,-0.1394,-0.1452,-0.1452,-0.1453,-0.1489,-0.149,-0.149,-0.149,-0.1538,-0.154,-0.1541,0,0,0,0,0,0,0,0,0,0,0,0,0,-0.1342,-0.1297,-0.1392,-0.142,-0.1424,-0.1452,-0.1452,-0.1453,-0.1489,-0.149,-0.149,-0.1491,-0.1538,-0.1539,-0.1541,-0.1538,0,0,-0.1545,-0.1546,0,0,0,0,0,0,0,0,-0.1339,-0.1345,-0.1415,-0.1419,-0.1422,-0.1465,-0.1436,-0.1482,-0.1489,-0.1462,-0.149,-0.1491,-0.1514,-0.1518,-0.1525,-0.1541,-0.1543,-0.1545,-0.1546,-0.1547,-0.1547,0,0,0,0,0,0,0,-0.1336,-0.1343,-0.1413,-0.1416,-0.1421,-0.1425,-0.1433,-0.1445,-0.1482,-0.1464,-0.1468,-0.1478,-0.1516,-0.1523,-0.1526,-0.1543,-0.1545,-0.1546,-0.1547,-0.1548,-0.1635,-0.1636,0,0,0,0,0,0,-0.1333,-0.134,-0.1412,-0.1415,-0.1384,-0.1427,-0.1435,-0.1449,-0.1483,-0.1489,-0.1477,-0.1479,-0.1521,-0.1524,-0.1528,-0.1599,-0.1547,-0.1548,-0.1549,-0.1633,-0.1635,-0.1637,0,0,0,0,0,0,-0.1331,-0.1339,-0.1409,-0.138,-0.139,-0.1428,-0.1444,-0.145,-0.1483,-0.1493,-0.1498,-0.1506,-0.1521,-0.1526,-0.1565,-0.1598,-0.1549,-0.155,-0.1632,-0.1634,-0.1636,-0.1695,0,0,0,0,0,0,-0.1328,-0.1338,-0.1357,-0.138,-0.1392,-0.1445,-0.1444,-0.1451,-0.1488,-0.1491,-0.1519,-0.1523,-0.1522,-0.1563,-0.1567,-0.1599,-0.1551,-0.163,-0.1633,-0.1635,-0.1691,-0.1699,-0.1705,0,0,0,0,0,-0.1324,-0.1345,-0.1358,-0.1367,-0.1414,-0.1446,-0.1453,-0.148,-0.1489,-0.151,-0.1531,-0.1523,-0.1583,-0.1566,-0.1569,-0.1603,-0.1628,-0.1632,-0.1635,-0.1688,-0.1697,-0.1705,0,0,0,0,0,0,-0.1313,-0.1352,-0.1366,-0.1399,-0.143,-0.1454,-0.1477,-0.1494,-0.1526,-0.1537,-0.1541,-0.1547,-0.1594,-0.159,-0.1571,-0.1637,-0.1605,-0.1609,-0.1644,-0.1653,-0.166,-0.166,-0.1552,0,0,0,0,0,-0.132,-0.1347,-0.1381,-0.141,-0.1427,-0.1456,-0.1477,-0.1498,-0.1525,-0.1541,-0.1562,-0.1583,-0.1606,-0.1623,-0.164,-0.1675,-0.1669,-0.1699,-0.1707,-0.1713,-0.1716,-0.1736,-0.1745,-0.1647,-0.1647,-0.1647,0,0,-0.1323,-0.1348,-0.1365,-0.141,-0.1435,-0.147,-0.1471,-0.1511,-0.1548,-0.154,-0.1599,-0.1611,-0.1621,-0.1663,-0.1684,-0.1668,-0.1739,-0.1717,-0.1722,-0.1722,-0.1741,-0.175,-0.1759,-0.165,-0.1649,-0.1649,0,0,-0.1337,-0.1368,-0.1395,-0.1426,-0.1472,-0.1493,-0.1512,-0.1554,-0.1583,-0.1633,-0.1639,-0.1673,-0.1708,-0.1725,-0.1735,-0.1791,-0.1776,-0.1799,-0.1838,-0.1858,-0.1866,-0.1873,-0.1882,-0.189,-0.1803,-0.1803,-0.1804,0,-0.1341,-0.138,-0.1408,-0.1442,-0.1474,-0.1508,-0.1546,-0.158,-0.1633,-0.1661,-0.1662,-0.1729,-0.1738,-0.1788,-0.1807,-0.1808,-0.1811,-0.1804,-0.1867,-0.1874,-0.188,-0.1888,-0.1895,-0.1807,-0.1806,-0.1806,-0.1806,0,-0.1368,-0.1411,-0.1431,-0.1487,-0.1525,-0.1565,-0.1614,-0.166,-0.1696,-0.1727,-0.1793,-0.1809,-0.1845,-0.1858,-0.185,-0.1903,-0.1888,-0.1873,-0.1843,-0.1893,-0.1898,-0.1905,-0.1811,-0.181,-0.1809,-0.1808,0,0,-0.1342,-0.1433,-0.1442,-0.1481,-0.1555,-0.1587,-0.1655,-0.1721,-0.1769,-0.1821,-0.1877,-0.192,-0.1929,-0.1941,-0.1942,-0.1961,-0.2006,-0.1938,-0.1938,-0.1944,-0.2047,-0.1898,-0.189,-0.2002,-0.2003,-0.2004,-0.2034,0,-0.1356,-0.1426,-0.1472,-0.1548,-0.1588,-0.1649,-0.1709,-0.1775,-0.1829,-0.1891,-0.1924,-0.1974,-0.1961,-0.1983,-0.2003,-0.2006,-0.2025,-0.1999,-0.2,-0.2,-0.1858,-0.1893,-0.2009,-0.2038,-0.204,-0.2041,-0.2042,0,-0.136,-0.1411,-0.1485,-0.1585,-0.1609,-0.1662,-0.1763,-0.1822,-0.1911,-0.1953,-0.2009,-0.2033,-0.2082,-0.2055,-0.2094,-0.2078,-0.2069,-0.2065,-0.2066,-0.1908,-0.1862,-0.1977,-0.2053,-0.2052,-0.2051,-0.205,-0.205,0,-0.1315,-0.1418,-0.148,-0.1514,-0.1629,-0.168,-0.1743,-0.184,-0.1894,-0.1991,-0.2032,-0.2094,-0.2122,-0.2136,-0.2125,-0.2119,-0.2147,-0.2137,-0.1999,-0.1989,-0.2089,-0.2081,-0.2162,-0.2162,-0.2162,-0.2162,-0.2161,0,-0.1297,-0.135,-0.1468,-0.1502,-0.1579,-0.1667,-0.1752,-0.1823,-0.1921,-0.1972,-0.2055,-0.2086,-0.2142,-0.2159,-0.2149,-0.2081,-0.2168,-0.2006,-0.1985,-0.2113,-0.2108,-0.2093,-0.2085,-0.2163,-0.2162,-0.2162,-0.2162,0,-0.1233,-0.1314,-0.1389,-0.1516,-0.156,-0.1612,-0.1744,-0.1794,-0.1901,-0.1969,-0.1999,-0.2091,-0.2107,-0.2139,-0.2155,-0.2087,-0.2056,-0.201,-0.2144,-0.213,-0.1884,-0.1879,-0.1869,-0.1864,-0.186,-0.1856,-0.1853,0,-0.1204,-0.1238,-0.1376,-0.1417,-0.1478,-0.1573,-0.163,-0.1762,-0.1806,-0.1944,-0.1952,-0.2021,-0.2059,-0.1967,-0.2015,-0.1988,-0.1959,-0.1934,-0.1909,-0.1873,-0.1854,-0.1856,-0.1856,-0.1847,-0.1845,-0.1844,-0.1843,0,-0.114,-0.1197,-0.1257,-0.1338,-0.1408,-0.1482,-0.157,-0.1594,-0.1729,-0.1846,-0.1851,-0.1858,-0.1868,-0.1869,-0.1851,-0.1832,-0.1948,-0.1889,-0.1898,-0.1874,-0.1845,-0.1831,-0.1837,-0.1828,-0.1831,-0.1832,-0.1833,0,-0.1085,-0.1104,-0.118,-0.1241,-0.1321,-0.1353,-0.1426,-0.1474,-0.1537,-0.1688,-0.168,-0.1757,-0.1843,-0.1787,-0.1774,-0.1738,-0.1716,-0.1659,-0.1679,-0.1696,-0.1622,-0.1559,-0.1435,0,0,0,0,0,-0.1018,-0.1027,-0.1075,-0.1136,-0.1205,-0.125,-0.1364,-0.1438,-0.1571,-0.1526,-0.16,-0.1603,-0.159,-0.1631,-0.1557,-0.1697,-0.1723,-0.1603,-0.1667,-0.1746,-0.1763,-0.169,0,0,0,0,0,0,-0.0975,-0.1012,-0.1033,-0.1023,-0.104,-0.1104,-0.117,-0.1267,-0.1255,-0.1393,-0.1391,-0.1492,-0.1501,-0.1599,-0.1517,-0.1529,-0.1533,-0.1657,-0.1653,-0.1736,-0.1752,-0.1766,-0.1696,0,0,0,0,0]},{"header":{"parameterUnit":"m.s-1","parameterCategory":2,"la1":30.2991,"la2":30.254,"lo1":-89.0895,"lo2":-89.0444,"dy":0.0017,"dx":0.0017,"nx":28,"ny":28,"refTime":"2024-12-13T09:00:00:Z","depth":"4","parameterNumber":3,"parameterNumberName":"V-component_of_CURRENTS"},"data":[0,0,0,0,0,0,0,0,0,0,0,0,0,0,0,0,0,0,0,0,0,0,0,0,0,0,0,0,0,0,0,0,0,0,0,0,0,0,0,0,0,0,0,0,0,0,0,0,0,0,0,0,0,0,0,0,0,0,-0.009,-0.0089,0,-0.003,-0.0029,-0.0028,0.0014,0.0015,0.0015,0.0015,0.0104,0.0106,0.0108,0,0,0,0,0,0,0,0,0,0,0,0,0,-0.0128,-0.0127,-0.009,-0.0089,-0.0088,-0.003,-0.0029,-0.0028,0.0014,0.0015,0.0015,0.0015,0.0103,0.0106,0.0109,0,0,0,0,0,0,0,0,0,0,0,0,0,-0.0093,-0.0127,-0.009,-0.0061,-0.0058,-0.003,-0.0029,-0.0028,0.0014,0.0015,0.0015,0.0015,0.0103,0.0106,0.0109,0.0121,0,0,0.0119,0.012,0,0,0,0,0,0,0,0,-0.0095,-0.0092,-0.0066,-0.0063,-0.0059,-0.0016,-0.001,0.0023,0.0014,-0.0012,0.0015,0.0016,0.0066,0.0072,0.0084,0.0125,0.0129,0.0119,0.0121,0.0122,0.0123,0,0,0,0,0,0,0,-0.0098,-0.0094,-0.0065,-0.0065,-0.0061,-0.0038,-0.0032,-0.0003,0.0025,-0.001,-0.0007,-0.0002,0.0068,0.008,0.0086,0.013,0.0119,0.0122,0.0124,0.0125,0.0196,0.0196,0,0,0,0,0,0,-0.011,-0.0096,-0.0067,-0.0063,-0.0078,-0.0037,-0.0032,-0.0029,0.0025,0.0033,-0.0002,-0.0,0.0075,0.0082,0.0089,0.0112,0.0122,0.0125,0.0127,0.0196,0.0196,0.0196,0,0,0,0,0,0,-0.0111,-0.0108,-0.0069,-0.0079,-0.0073,-0.0038,-0.0035,-0.0028,-0.0016,0.003,0.0039,0.0003,0.0075,0.0085,0.0115,0.0115,0.0127,0.013,0.0196,0.0196,0.0196,0.0153,0,0,0,0,0,0,-0.0112,-0.0109,-0.0113,-0.008,-0.0073,-0.0059,-0.0035,-0.0027,-0.0014,-0.001,0.0037,0.0046,0.0076,0.011,0.0118,0.012,0.0132,0.0196,0.0196,0.0196,0.0155,0.0152,0.0149,0,0,0,0,0,-0.0114,-0.0123,-0.0113,-0.011,-0.0079,-0.006,-0.0054,-0.0026,-0.0014,-0.0013,0.0022,0.0045,0.0116,0.0113,0.0122,0.0125,0.0196,0.0196,0.0196,0.0156,0.0152,0.0149,0,0,0,0,0,0,-0.0141,-0.0118,-0.0107,-0.0109,-0.0089,-0.0053,-0.0051,-0.0031,-0.0002,0.0002,0.0046,0.0057,0.0082,0.0109,0.0104,0.0145,0.0159,0.0161,0.0125,0.0122,0.0119,0.0107,0.0135,0,0,0,0,0,-0.015,-0.0151,-0.0123,-0.0125,-0.0118,-0.0085,-0.0075,-0.0056,-0.0026,-0.0013,0.002,0.0057,0.0089,0.0109,0.0138,0.0162,0.019,0.017,0.0167,0.0164,0.0161,0.0204,0.0204,0.0196,0.0196,0.0196,0,0,-0.0162,-0.015,-0.0151,-0.0132,-0.0114,-0.0109,-0.0078,-0.0066,-0.0058,-0.0008,0.0012,0.0046,0.0092,0.0118,0.0132,0.0141,0.0181,0.0164,0.0162,0.016,0.0204,0.0205,0.0205,0.0196,0.0196,0.0196,0,0,-0.0188,-0.0176,-0.0185,-0.0172,-0.0152,-0.013,-0.013,-0.0097,-0.0078,-0.0054,-0.0016,0.0019,0.0064,0.0101,0.0125,0.0125,0.0161,0.0132,0.0114,0.0156,0.0157,0.0158,0.0191,0.0195,0.0135,0.0135,0.0135,0,-0.0204,-0.0211,-0.0185,-0.0189,-0.0185,-0.0144,-0.0152,-0.0125,-0.0086,-0.007,-0.0056,0.0018,0.0057,0.0099,0.0101,0.012,0.0144,0.0122,0.0152,0.0154,0.0156,0.0189,0.0195,0.0133,0.0133,0.0133,0.0133,0,-0.0233,-0.024,-0.0245,-0.0238,-0.0227,-0.0228,-0.0192,-0.0176,-0.0149,-0.0117,-0.0075,-0.0018,0.0026,0.0046,0.0076,0.011,0.0123,0.0139,0.0158,0.0154,0.019,0.0196,0.013,0.0131,0.0131,0.0132,0,0,-0.0265,-0.0267,-0.0269,-0.028,-0.0255,-0.0252,-0.0236,-0.021,-0.0201,-0.0149,-0.0128,-0.0061,-0.0026,0.0004,0.0049,0.0091,0.013,0.0117,0.0121,0.0146,0.0215,0.0195,0.0201,0.0151,0.0152,0.0153,0.0233,0,-0.0297,-0.0327,-0.0312,-0.0336,-0.0349,-0.0311,-0.0303,-0.027,-0.0232,-0.02,-0.0124,-0.0089,-0.0042,-0.0022,0.0029,0.0106,0.0146,0.0107,0.0219,0.0222,0.0202,0.0208,0.0156,0.0238,0.0239,0.0241,0.0241,0,-0.0327,-0.0347,-0.0382,-0.0394,-0.0395,-0.04,-0.0383,-0.0368,-0.0304,-0.0273,-0.0214,-0.0154,-0.0076,-0.0044,0.0088,0.006,0.0128,0.0188,0.0193,0.0194,0.0215,0.0245,0.0254,0.0253,0.0252,0.0251,0.025,0,-0.0369,-0.0394,-0.0429,-0.0433,-0.0435,-0.0443,-0.0438,-0.0393,-0.0384,-0.0318,-0.03,-0.0197,-0.0146,-0.0042,0.0086,0.0088,0.0224,0.0245,0.0292,0.0292,0.0305,0.0303,0.0326,0.0326,0.0326,0.0326,0.0326,0,-0.0405,-0.0433,-0.0457,-0.0477,-0.0518,-0.0496,-0.0519,-0.0493,-0.0455,-0.0442,-0.0345,-0.031,-0.0144,-0.0043,0.0071,0.0199,0.0215,0.0288,0.0312,0.0284,0.0279,0.0309,0.0306,0.0329,0.0328,0.0328,0.0327,0,-0.0438,-0.0452,-0.05,-0.0528,-0.0541,-0.0569,-0.0586,-0.0595,-0.0551,-0.053,-0.0511,-0.0386,-0.0248,-0.009,0.0088,0.0171,0.03,0.0337,0.0288,0.0308,0.0345,0.0339,0.0403,0.0403,0.0403,0.0403,0.0403,0,-0.0455,-0.0484,-0.0548,-0.0587,-0.0605,-0.0645,-0.067,-0.0647,-0.0647,-0.0576,-0.0564,-0.0433,-0.0334,-0.0098,0.0066,0.0277,0.0303,0.0363,0.0364,0.0336,0.0353,0.0347,0.0341,0.0403,0.0403,0.0403,0.0403,0,-0.049,-0.0517,-0.0557,-0.0644,-0.0692,-0.0739,-0.0766,-0.0772,-0.0729,-0.0697,-0.0599,-0.0461,-0.0306,-0.0106,0.0053,0.0204,0.0324,0.0363,0.0365,0.0366,0.0337,0.0352,0.0347,0.0403,0.0403,0.0403,0.0403,0,-0.0512,-0.0554,-0.0618,-0.0687,-0.0756,-0.0802,-0.0816,-0.0801,-0.0788,-0.0694,-0.0665,-0.0484,-0.0369,-0.0146,0.0002,0.0149,0.0191,0.0233,0.0242,0.0244,0.0174,0.0112,0.0128,0,0,0,0,0,-0.0528,-0.058,-0.0657,-0.073,-0.0799,-0.0836,-0.0863,-0.0859,-0.0819,-0.0759,-0.0706,-0.0558,-0.0314,-0.0205,-0.006,-0.0004,0.0206,0.0169,0.0256,0.0403,0.0403,0.0346,0,0,0,0,0,0,-0.0542,-0.0615,-0.0659,-0.0749,-0.0805,-0.0871,-0.0891,-0.0867,-0.082,-0.0759,-0.0629,-0.0539,-0.0303,-0.0398,-0.0063,-0.0016,0.0055,0.0291,0.0293,0.0403,0.0403,0.0403,0.0344,0,0,0,0,0]}]]